{"data":{"norad_id":81069,"intl_designator":"","name":"UNKNOWN","alt_names":[],"object_type":"UNKNOWN","status":"UNKNOWN","operator":null,"country":null,"launch_date":null,"launch_site_code":null,"launch_vehicle":null,"mission":null,"orbit_class":"UNKNOWN","rcs_meters":null,"size_class":null,"mass_kg":null,"dimensions":null,"purposes":[],"wikipedia_slug":null,"has_3d_model":false,"image_url":null,"decayed_at":null,"tle_current":{"epoch":"2026-05-23T11:29:48.852096Z","epoch_age_seconds":206137,"freshness":"STALE","line1":"1 81069U          26143.47903764  .00002581  00000+0  33768-2 0  9994","line2":"2 81069 100.3836  59.5469 0069634   7.1100 353.1010 13.61656406537930","mean_motion":13.61656406,"eccentricity":0.0069634,"inclination_deg":100.3836,"raan_deg":59.5469,"arg_perigee_deg":7.11,"mean_anomaly_deg":353.101,"bstar":0.0033768,"rev_number":53793,"period_min":105.75355087045,"perigee_km":978.09483395067,"apogee_km":1081.2619976837,"semimajor_km":7407.8154158172,"source":"CELESTRAK","updated_at":"2026-05-25T13:38:09.444264Z"}}}